Location: Azul
(36.7830°S, 59.8500°W)
Time: 10:36:00
(UTC-03:00)

SEEDS - Visible Passes

Search period start: 22 October 2021 00:00
Search period end: 01 November 2021 00:00
Orbit: 585 x 601 km, 97.6° (Epoch: 21 October)

Date Brightness Start Highest point End Pass type
(mag) Time Alt. Az. Time Alt. Az. Time Alt. Az.
22 Oct ? 04:57:18 10° N 05:01:28 72° WNW 05:05:41 10° SSW visible
23 Oct ? 03:33:59 10° E 03:35:20 11° ESE 03:36:41 10° SE visible
23 Oct ? 05:06:18 10° N 05:10:24 55° W 05:14:33 10° SSW visible
24 Oct ? 03:41:53 10° E 03:44:09 14° ESE 03:46:25 10° SE visible
24 Oct ? 05:15:22 10° N 05:19:20 42° W 05:23:21 10° SSW visible
25 Oct ? 03:50:08 10° ENE 03:52:57 18° ESE 03:55:49 10° SSE visible
25 Oct ? 05:24:30 10° NNW 05:28:17 33° W 05:32:06 10° SSW visible
26 Oct ? 03:58:32 10° ENE 04:01:48 22° ESE 04:05:04 10° SSE visible
27 Oct ? 04:07:04 10° NE 04:10:38 28° ESE 04:14:14 10° SSE visible
28 Oct ? 04:15:41 10° NE 04:19:29 35° ESE 04:23:20 10° S visible
29 Oct ? 04:24:23 10° NE 04:28:21 45° ESE 04:32:22 10° S visible
30 Oct ? 04:33:08 10° NNE 04:37:13 58° ESE 04:41:22 10° S visible
31 Oct ? 04:41:57 10° NNE 04:46:06 76° ESE 04:50:19 10° S visible
